CZ-4B DEB, 57397

Orbit data source: Space-Track

CZ-4B DEB, 57397 is space debris in SSO originally from a launch on Wed, 24 Oct 2018 UTC launched from the Taiyaun Space Center, China (TSC). Debris objects in space refer to the collection of defunct objects orbiting the Earth. Examples of debris include non-operational satellites, rocket bodies, and fragments generated from explosions, collisions, or faulty payload assembly.

Loading next visibility...
Identifier
57397, 2018-081Q
Orbit
SSO
Country
Flag of CNCN / PRC
Related business
Manufacturer
Unknown
Mission
Spacecraft
Bus & Motor
Unknown
Mass
Unknown
Launch date (UTC)
2018-10-24 (7 years ago)
Launch vehicle
Unknown
Launch site
Taiyaun Space Center, China (TSC)
Object type
Payload
Rocket body
Debris
Shape & HBR
Unknown shape, 0.1 m
Radar Cross Section
Small (<0.1 m²)

Expand to show TLE details & history
Last TLE update: 2 days ago

TLE from 2 days ago
0 CZ-4B DEB
1 57397U 18081Q   25308.52659977  .00001483  00000-0  39955-3 0  9997
2 57397  99.3690 210.1032 0196326 173.3885 186.9962 14.38929015134674
Epoch: 2025-11-04T12:38Z
TLE epoch observation values (Epoch: 2025-11-04T12:38:18.220Z)
Latitude
0.00005°
Longitude
-23.48508°
Altitude
904.163 km
Speed
7.328 km/s
True Right ascension
14h 00m 24s
True Declination
0° 00' 00"
Sunlit
Object was in daylight at epoch
Visualization orbit readout
Latitude
Unknown
Longitude
Unknown
Altitude
Unknown
Speed
Unknown
Apparent Right ascension
Unknown
Apparent Declination
Unknown
Sunlit
N/A
Visualization observer readout
Local Sidereal Time
08:27:33
Azimuth
Unknown
Elevation
Unknown
Doppler factor
Unknown
Orbital elements
Apogee altitude
899.328 km
Perigee altitude
619.079 km
Semi-major axis
7,137.341 km
Eccentricity
0.01963
Inclination
99.369°
RAAN
210.1032°
Arg. of periapsis
173.3885°
True anomaly
186.7287°
Mean anomaly
186.9962°
Eccentric anomaly
186.86181°
Mean motion
3.59947 °/min
Orbital period
100.01 mins
BSTAR
0.00039955
Loading maneuver chart data...
Computing Atmospheric mass density...
Loading historical data...
Loading historical data...
Loading historical data...
Loading historical data...
Loading historical data...
Loading historical data...
Loading historical data...

Documentation

Showing up to 5 results
|